FW7738 Weather Reports


time (UTC)temp
C
wind
direction
speed
KPH
gust
KPH
rain 1hr
cm
rain 24hr
cm
rain mn
cm
humidity
%
barometer
mb
20260505230017 16 34 1.6 4.8 0.00 0.00 0.00 62 1010.3
20260505225032 16 48 1.6 3.2 0.00 0.00 0.00 63 1010.1
20260505224028 16 60 1.6 4.8 0.00 0.00 0.00 63 1010.3
20260505223023 16 73 0.0 3.2 0.00 0.00 0.00 64 1010.3
20260505222019 16 66 1.6 6.4 0.00 0.00 0.00 62 1010.3
20260505221034 16 33 4.8 12.9 0.00 0.00 0.00 62 1010.2
20260505220029 17 44 4.8 11.3 0.00 0.00 0.00 62 1010.2
20260505215025 17 52 3.2 14.5 0.00 0.00 0.00 62 1010.2
20260505214020 17 53 6.4 16.1 0.00 0.00 0.00 62 1010.1
20260505213015 17 43 9.7 17.7 0.00 0.00 0.00 62 1010.0
20260505212031 17 46 9.7 24.1 0.00 0.00 0.00 62 1010.1
20260505211027 17 56 11.3 22.5 0.00 0.00 0.00 62 1010.2
20260505210042 17 56 8.0 20.9 0.00 0.00 0.00 63 1010.2
20260505205017 17 56 8.0 20.9 0.00 0.00 0.00 67 1009.9
20260505204033 17 47 17.7 30.6 0.00 0.00 0.00 71 1009.8
20260505203028 17 53 16.1 35.4 0.00 0.00 0.00 74 1009.7
20260505202023 17 53 9.7 24.1 0.00 0.00 0.00 75 1009.6
20260505201019 17 58 12.9 24.1 0.00 0.00 0.00 76 1009.5
20260505200034 17 51 9.7 27.4 0.00 0.00 0.00 77 1009.3
20260505195030 18 49 11.3 27.4 0.00 0.00 0.00 77 1008.9
20260505194026 18 67 11.3 20.9 0.00 0.00 0.00 79 1008.7
20260505193041 18 60 8.0 27.4 0.00 0.00 0.00 80 1008.7
20260505192056 18 58 9.7 27.4 0.00 0.00 0.00 82 1008.5
20260505191032 18 58 12.9 30.6 0.00 0.00 0.00 83 1008.3
20260505190027 18 58 12.9 29.0 0.00 0.00 0.00 82 1008.0
20260505185022 18 65 11.3 27.4 0.00 0.00 0.00 81 1007.9
20260505184018 18 55 11.3 29.0 0.00 0.00 0.00 80 1007.7
20260505183033 19 52 8.0 20.9 0.00 0.00 0.00 78 1007.6
20260505182028 20 55 11.3 24.1 0.00 0.00 0.00 77 1007.6
20260505181044 20 70 9.7 22.5 0.00 0.00 0.00 76 1007.4
20260505180020 21 74 6.4 17.7 0.00 0.00 0.00 71 1007.3
20260505175035 21 88 8.0 17.7 0.00 0.00 0.00 68 1007.0
20260505174031 21 82 8.0 20.9 0.00 0.00 0.00 65 1006.9
20260505173025 22 99 12.9 22.5 0.00 0.00 0.00 60 1006.7
20260505172021 22 95 9.7 20.9 0.00 0.00 0.00 57 1006.8
20260505171016 23 93 4.8 14.5 0.00 0.00 0.00 52 1006.8
20260505170032 23 84 3.2 9.7 0.00 0.00 0.00 48 1006.8
20260505165028 23 4 16.1 30.6 0.00 0.00 0.00 47 1006.8
20260505164023 25 321 6.4 16.1 0.00 0.00 0.00 24 1006.9
20260505163018 25 259 8.0 16.1 0.00 0.00 0.00 24 1007.0
20260505162034 25 265 9.7 17.7 0.00 0.00 0.00 24 1007.0
20260505161030 25 309 9.7 22.5 0.00 0.00 0.00 23 1007.0
20260505153051 25 293 11.3 20.9 0.00 0.00 0.00 24 1006.9
20260505152026 25 278 12.9 24.1 0.00 0.00 0.00 24 1006.9
20260505151021 25 282 8.0 22.5 0.00 0.00 0.00 24 1007.1
20260505125017 24 285 8.0 25.7 0.00 0.00 0.00 27 1008.2
20260505124032 24 244 11.3 22.5 0.00 0.00 0.00 28 1008.3
20260505123048 23 310 9.7 24.1 0.00 0.00 0.00 28 1008.2
20260505122023 23 295 6.4 14.5 0.00 0.00 0.00 28 1008.2
20260505121019 24 259 12.9 25.7 0.00 0.00 0.00 29 1008.2
20260505120035 25 240 8.0 17.7 0.00 0.00 0.00 27 1008.3
20260505115050 25 216 9.7 29.0 0.00 0.00 0.00 27 1008.2
20260505114045 24 264 6.4 14.5 0.00 0.00 0.00 27 1008.5
20260505113020 24 278 6.4 17.7 0.00 0.00 0.00 28 1008.6
20260505112015 24 271 4.8 12.9 0.00 0.00 0.00 28 1008.8
20260505111031 24 280 3.2 9.7 0.00 0.00 0.00 29 1008.9
20260505102027 23 244 1.6 9.7 0.00 0.00 0.00 33 1009.3
20260505101021 23 246 3.2 6.4 0.00 0.00 0.00 33 1009.4
20260505100017 22 327 3.2 9.7 0.00 0.00 0.00 33 1009.5
20260505095033 22 279 8.0 12.9 0.00 0.00 0.00 34 1009.5
20260505094048 22 296 8.0 17.7 0.00 0.00 0.00 32 1009.5
20260505093044 22 281 4.8 11.3 0.00 0.00 0.00 36 1009.4
20260505092019 22 294 6.4 14.5 0.00 0.00 0.00 37 1009.7
20260505091034 22 284 1.6 4.8 0.00 0.00 0.00 45 1009.6
20260505090030 21 269 4.8 9.7 0.00 0.00 0.00 49 1009.7
20260505085025 21 224 4.8 9.7 0.00 0.00 0.00 51 1009.7
20260505084020 20 321 3.2 9.7 0.00 0.00 0.00 50 1009.8
20260505083036 20 259 3.2 9.7 0.00 0.00 0.00 55 1009.8
20260505082032 19 267 3.2 6.4 0.00 0.00 0.00 59 1009.9
20260505081046 18 253 6.4 11.3 0.00 0.00 0.00 61 1009.9
20260505080022 18 270 4.8 9.7 0.00 0.00 0.00 62 1009.9
20260505075018 18 285 4.8 12.9 0.00 0.00 0.00 60 1010.1
20260505074033 18 282 6.4 12.9 0.00 0.00 0.00 59 1010.1
20260505073029 17 286 6.4 14.5 0.00 0.00 0.00 61 1010.1
20260505072024 17 318 8.0 14.5 0.00 0.00 0.00 64 1010.2
20260505071020 17 308 3.2 9.7 0.00 0.00 0.00 70 1010.2
20260505070016 16 317 4.8 11.3 0.00 0.00 0.00 73 1010.2
20260505065031 16 295 3.2 6.4 0.00 0.00 0.00 75 1010.3
20260505064026 16 279 4.8 11.3 0.00 0.00 0.00 76 1010.2
20260505063021 16 282 6.4 9.7 0.00 0.00 0.00 80 1010.1
20260505062037 15 291 4.8 9.7 0.00 0.00 0.00 81 1010.2
20260505061032 15 304 4.8 11.3 0.00 0.00 0.00 83 1010.0
20260505060028 15 279 4.8 14.5 0.00 0.00 0.00 84 1010.1
20260505055024 15 286 4.8 9.7 0.00 0.00 0.00 86 1010.0
20260505054018 15 297 3.2 6.4 0.00 0.00 0.00 87 1010.0
20260505053034 15 287 4.8 12.9 0.00 0.00 0.00 89 1009.9
20260505052029 15 280 3.2 9.7 0.00 0.00 0.00 90 1009.8
20260505051024 15 295 1.6 4.8 0.00 0.00 0.00 91 1009.8
20260505041016 15 314 0.0 1.6 0.00 0.00 0.00 91 1009.9
20260505040031 15 334 1.6 3.2 0.00 0.00 0.00 91 1009.9
20260505035027 15 313 0.0 1.6 0.00 0.00 0.00 91 1010.0
20260505034022 15 331 0.0 1.6 0.00 0.00 0.00 91 1010.1
20260505033017 15 0.0 0.0 0.00 0.00 0.00 91 1010.1
20260505032032 15 0.0 0.0 0.00 0.00 0.00 90 1010.2
20260505031028 15 0.0 0.0 0.00 0.00 0.00 90 1010.2
20260505030043 15 0.0 0.0 0.00 0.00 0.00 90 1010.2
20260505025038 15 0.0 0.0 0.00 0.00 0.00 90 1010.2
20260505024054 15 318 1.6 1.6 0.00 0.00 0.00 91 1010.2
20260505023029 15 301 1.6 3.2 0.00 0.00 0.00 91 1010.2
20260505022025 15 306 1.6 3.2 0.00 0.00 0.00 92 1010.3
20260505021020 15 330 1.6 4.8 0.00 0.00 0.00 92 1010.1
20260505020016 15 350 1.6 3.2 0.00 0.00 0.00 92 1010.1
20260505015031 15 338 1.6 4.8 0.00 0.00 0.00 92 1010.2
20260505014046 15 341 3.2 4.8 0.00 0.00 0.00 92 1010.1
20260505013042 15 6 1.6 3.2 0.00 0.00 0.00 92 1010.2
20260505012018 15 346 1.6 4.8 0.00 0.00 0.00 91 1010.3
20260505011033 15 345 1.6 3.2 0.00 0.00 0.00 91 1010.5
20260505010109 15 0.0 0.0 0.00 0.00 0.00 91 1010.7
20260505005023 15 344 0.0 1.6 0.00 0.00 0.00 91 1010.8
20260505004019 15 349 0.0 1.6 0.00 0.00 0.00 91 1010.9
20260505003034 15 322 1.6 1.6 0.00 0.00 0.00 91 1010.9
20260505002029 15 356 0.0 1.6 0.00 0.00 0.00 91 1011.0
20260505001025 15 6 0.0 1.6 0.00 0.00 0.00 90 1010.9
20260505000020 15 0.0 0.0 0.00 0.00 0.00 90 1011.0
20260504235015 16 0.0 0.0 0.00 0.00 0.00 90 1010.9
20260504234051 16 0.0 0.0 0.00 0.00 0.00 89 1010.9
20260504233026 16 0.0 0.0 0.00 0.00 0.00 89 1010.9
20260504232021 16 0.0 0.0 0.00 0.00 0.00 89 1011.0
20260504231017 16 0.0 0.0 0.00 0.00 0.00 89 1010.9